This is the latest recevied weather packets stored in our database for station/object EA3ANS-1. If no packets are shown the sender has not sent any weather packets the latest 10 day(s).
| Time | Temp. | Humidity | Pressure | Rain* | Wind** | Luminosity | Snow |
|---|---|---|---|---|---|---|---|
| 1777660400 | 18.33° C | - | 1022.2 hPa | 0 mm | 3.58 m/s, 158° | - | - |
| 1777659803 | 18.33° C | - | 1022.1 hPa | 0 mm | 2.68 m/s, 152° | - | - |
| 1777659206 | 18.89° C | - | 1022.1 hPa | 0 mm | 1.79 m/s, 159° | - | - |
| 1777658596 | 18.89° C | - | 1022 hPa | 0 mm | 3.13 m/s, 129° | - | - |
| 1777657992 | 18.89° C | - | 1021.8 hPa | 0 mm | 3.58 m/s, 158° | - | - |
| 1777657394 | 18.89° C | - | 1021.6 hPa | 0 mm | 4.02 m/s, 113° | - | - |
| 1777656797 | 18.89° C | - | 1021.5 hPa | 0 mm | 3.58 m/s, 143° | - | - |
| 1777656195 | 18.89° C | - | 1021.3 hPa | 0 mm | 4.02 m/s, 132° | - | - |
| 1777655601 | 19.44° C | - | 1021.1 hPa | 0 mm | 3.13 m/s, 129° | - | - |
| 1777655001 | 19.44° C | - | 1021.1 hPa | 0 mm | 2.68 m/s, 156° | - | - |
| 1777654326 | 20° C | - | 1020.8 hPa | 0 mm | 3.58 m/s, 136° | - | - |
| 1777653681 | 20° C | - | 1020.7 hPa | 0 mm | 3.13 m/s, 162° | - | - |
| 1777653072 | 20.56° C | - | 1020.5 hPa | 0 mm | 3.13 m/s, 117° | - | - |
| 1777652474 | 20° C | - | 1020.6 hPa | 0 mm | 3.58 m/s, 127° | - | - |
| 1777651877 | 20.56° C | - | 1020.6 hPa | 0 mm | 3.13 m/s, 165° | - | - |
| 1777651275 | 20° C | - | 1020.4 hPa | 0 mm | 3.58 m/s, 131° | - | - |
| 1777650677 | 20.56° C | - | 1020.6 hPa | 0 mm | 3.58 m/s, 139° | - | - |
| 1777650067 | 21.11° C | - | 1020.6 hPa | 0 mm | 4.02 m/s, 142° | - | - |
| 1777649464 | 21.11° C | - | 1020.4 hPa | 0 mm | 2.68 m/s, 210° | - | - |
| 1777648867 | 21.11° C | - | 1020.6 hPa | 0 mm | 4.02 m/s, 153° | - | - |
| 1777648267 | 21.11° C | - | 1020.7 hPa | 0 mm | 2.68 m/s, 135° | - | - |
| 1777647668 | 21.11° C | - | 1020.5 hPa | 0 mm | 4.02 m/s, 165° | - | - |
| 1777647070 | 22.22° C | - | 1020.8 hPa | 0 mm | 3.13 m/s, 211° | - | - |
| 1777646473 | 22.22° C | - | 1020.8 hPa | 0 mm | 3.58 m/s, 155° | - | - |
| 1777645865 | 22.22° C | - | 1020.8 hPa | 0 mm | 3.58 m/s, 167° | - | - |
* Rain latest hour (hover to see other rain measurements)
** Current wind speed in m/s (hover to see current wind gust speed)